Regional Weather Roundup
Issued by NWS Sterling, VA

Home | Current Version | Previous Version | Graphics & Text | Print | Product List | Glossary On
Versions: 1 2 3 4 5 6 7 8 9 10 11 12 13 14 15 16 17 18 19 20 21 22 23 24 25 26 27 28 29 30 31 32 33 34 35 36 37 38 39 40 41 42 43 44 45 46 47 48 49 50
000
ASUS41 KLWX 060710
RWRLWX

REGIONAL WEATHER ROUNDUP
NATIONAL WEATHER SERVICE BALTIMORE MD/WASHINGTON DC
300 AM EDT WED MAY 06 2015

Note: "FAIR" indicates few or no clouds below 12,000 feet
with no significant weather and/or obstructions to visibility.
 TC=TEMPERATURE CELSIUS

 * =Non NWS site. Station does not report precipitation (e.g. rain,
    snow, etc.), thunder, or fog.

DCZ001-MDZ009-015-VAZ040>042-051-053>054-060800-
WASHINGTON METRO

CITY           SKY/WX    TMP DP  RH WIND       PRES   REMARKS
WASHINGTON NAT MOCLDY    66  61  84 S3        30.21F
DULLES         CLEAR     62  61  96 S5        30.21F
ANDREWS AFB    CLEAR     64  63  99 SW7       30.19F
FT BELVOIR     FOG       59  57  94 SE3       30.20F VSB 3/4
QUANTICO       PTCLDY    64  61  90 SW3       30.22F
COLLEGE PARK*  CLEAR     63  61  94 CALM      30.20S
LEESBURG*      CLEAR     61  61 100 CALM      30.22F
MANASSAS*        N/A     61  61 100 CALM      30.21F VSB 1/2
GAITHERSBURG*  CLEAR     63  57  82 CALM      30.25F

$$

MDZ006>007-011-014-060800-
BALTIMORE METRO

CITY           SKY/WX    TMP DP  RH WIND       PRES   REMARKS
BWI AIRPORT    PTCLDY    62  59  90 W3        30.19F
MD SCIENCE CTR   N/A     69  59  70 MISG      30.20F
MARTIN STATE   CLEAR     63  61  94 CALM      30.21F
ANNAPOLIS      CLEAR     65  60  84 VRB3      30.18F
FORT MEADE*      N/A     57  55  94 CALM      30.22F

$$

MDZ012-015-019>023-060800-
MARYLAND EASTERN SHORE

CITY           SKY/WX    TMP DP  RH WIND       PRES   REMARKS
OCEAN CITY     PTCLDY    65  55  70 W5        30.21F
SALISBURY      PTCLDY    63  59  87 CALM      30.21F
BAY BRIDGE AP*   N/A    N/A N/A N/A CALM      30.20F
EASTON*        CLEAR     62  62 100 SE3       30.24F

$$

MDZ017>025-060800-
SOUTHERN MARYLAND

CITY           SKY/WX    TMP DP  RH WIND       PRES   REMARKS
PATUXENT RIVER PTCLDY    64  61  90 SW6       30.20F
ST INIGOES     PTCLDY    66  60  81 SW6       30.21F
LEONARDTOWN*   PTCLDY    63  59  88 CALM      30.22F

$$

MDZ003>005-060800-
NORTH CENTRAL MARYLAND

CITY           SKY/WX    TMP DP  RH WIND       PRES   REMARKS
FREDERICK*     CLEAR     61  55  82 CALM      30.23F HAZE
HAGERSTOWN APT PTCLDY    65  59  81 SE3       30.21F
WESTMINSTER*   CLEAR     64  61  88 SW3       30.21F

$$

MDZ501>502-060800-
WESTERN MARYLAND

CITY           SKY/WX    TMP DP  RH WIND       PRES   REMARKS
OAKLAND*       CLEAR     61  57  88 SW5       30.29F
CUMBERLAND*    CLEAR     59  57  94 CALM      30.26S

$$

VAZ025>031-060800-
SHENANDOAH VALLEY

CITY           SKY/WX    TMP DP  RH WIND       PRES   REMARKS
WINCHESTER*    CLEAR     63  55  77 CALM      30.21F
FRONT ROYAL*   FAIR      59  57  94 S3        30.21S
LURAY*         FOG       57  57 100 CALM      30.22F VSB 1/4
NEW MARKET*    CLOUDY    56  56 100 CALM      30.23S VSB<1/4
STAUNTON*      CLEAR     57  55  93 CALM      30.25F
WAYNESBORO*    FAIR      61  58  90 CALM      30.24F

$$

WVZ021-048>050-054>055-060800-
EASTERN WEST VIRGINIA PANHANDLE

CITY           SKY/WX    TMP DP  RH WIND       PRES   REMARKS
MARTINSBURG    CLEAR     58  56  93 SE3       30.21F FOG
PETERSBURG*    FOG       56  53  90 CALM      30.24S VSB 1/4

$$

VAZ036>039-050-060800-
CENTRAL FOOTHILLS

CITY           SKY/WX    TMP DP  RH WIND       PRES   REMARKS
CHARLOTTESVILL CLEAR     62  61  96 CALM      30.22S FOG
CULPEPER*      FOG       57  57 100 CALM      30.22F VSB 1/2
ORANGE*          N/A     61  59  94 CALM      30.23F FOG
GORDONSVILLE*  FOG       57  57  99 CALM      30.21F VSB 1
WARRENTON*     FOG       61  61 100 S3        30.20F VSB 1/2

$$

VAZ055>057-060800-
NORTH AND CENTRAL PIEDMONT

CITY           SKY/WX    TMP DP  RH WIND       PRES   REMARKS
FREDERICKSBRG* CLEAR     64  64 100 CALM      30.20F FOG
STAFFORD*      FOG       59  32  35 CALM      30.25F VSB 3/4

$$

NCZ024-NYZ072-PAZ021-071-VAZ022-071-060800-
OTHER REGIONAL OBSERVATIONS

CITY           SKY/WX    TMP DP  RH WIND       PRES   REMARKS
NEW YORK CITY  CLOUDY    70  42  36 VRB6      30.22S
PHILADELPHIA   MOCLDY    67  62  84 SW6       30.19F
PITTSBURGH     FOG       60  59  96 N6        30.23S VSB 1/16
ROANOKE        CLEAR     61  56  83 W3        30.26F
RICHMOND       PTCLDY    62  56  80 S5        30.23F
RALEIGH        MOCLDY    61  53  75 S5        30.26F

$$

ANZ530>537-060800-
MARINE OBSERVATIONS

STATION/POSITION TIME  TEMP    WIND        PRES
                       AIR SEA DIR/SP/G
                 (UTC) (F)     (DEG/KT/KT) (MB)
THOMAS PT LIGHT  0700   66 61  280/  5/  5 1022.9F
BALT KEY BRIDGE  0600   67     240/  7/  8 1022.5F
COVE POINT       0600   65     230/  6/  8 1023.7F
LEWISETTA        0600   68 68              1023.0F
SOLOMONS ISLAND  0606      62                N/A
PINEY POINT      0600          240/  2/  3   N/A

$$



USA.gov is the U.S. government's official web portal to all federal, state and local government web resources and services.